Location: ??????????
(54.8537°N, 38.8755°E)
Time: 20:03:06
(UTC+00:00)

Tiros 1 despin weight - Pass Details

Date: 16 September 2024
Orbit: 572 x 613 km, 48.2° (Epoch: 13 October)

Event Time Altitude Azimuth Distance (km) Brightness Sun altitude
Exits shadow 00:49:05 18° 177° (S) 1,509 ? -18.3°
Maximum altitude 00:50:24 21° 154° (SSE) 1,408 ? -18.2°
Drops below altitude 10° 00:53:46 10° 106° (ESE) 1,979 ? -17.8°
Sets 00:56:32 0° 90° (E) 2,887 ? -17.4°
